Content
SEND FEEDBACK

Daily
Averages
Monthly
Summary
United States of America

OROVILLE, CALIFORNIA


Home > North America > United States > California
Elevation: 199 feet     Latitude: 39 30N     Longitude: 121 37W

WEATHER
 
SELECT A DAY
Number of Records: 152,195;   Date Range: 6/17/98 - 7/7/14
 
SHARE

PRINT THIS DATA

[ ← Previous Day ]
WEATHER ALMANAC - MARCH 1, 2013
[ Next Day → ]
[ °C ]   °F
Weather ElementAverageHighLow
Temperature56.3 °F70 °F (3:53 pm)39.9 °F (6:53 am)
Dewpoint44.1 °F46 °F (11:53 am)39 °F (6:53 am)
Humidity66.7 %97 % (6:53 am)40 % (2:53 pm)
Barometer30.34 in30.44 in (1:53 am)30.27 in (4:53 pm)
Wind Speed1.7 mph5.8 mph (10:53 am)
Weather ElementAverage
Visibility10 mi
Wind DirectionNE (41.9 °)

Weather ElementTotal
Precipitation---
Heating Degree Days10.1 (Base 65)
Growing Degree Days5 (Base 50)
Averaged from 21 records on March 1, 2013
WEATHER CONDITIONS BREAKOUT
WIND DIRECTION BREAKOUT
WEATHER BY HOUR - MARCH 1, 2013
[ °C ]   °F
Local TimeTemperatureDewpointHumidityBarometerVisibilityWind DirectionWind SpeedGust SpeedPrecipitationEventsConditions
1:53 AM46.9 °F42.1 °F83 %30.44 in10.0 miCalmClear
2:53 AM45.0 °F42.1 °F90 %30.42 in10.0 miCalmClear
4:53 AM42.1 °F39.9 °F92 %30.42 in10.0 miSSE (150°)4.6 mphClear
5:53 AM41.0 °F39.9 °F96 %30.43 in10.0 miCalmClear
6:53 AM39.9 °F39.0 °F97 %30.43 in10.0 miEast (100°)3.5 mphClear
7:53 AM46.0 °F42.1 °F86 %30.43 in10.0 miCalmClear
9:53 AM57.9 °F43.0 °F58 %30.41 in10.0 miSSE (160°)3.5 mphClear
10:53 AM61.0 °F45.0 °F56 %30.40 in10.0 miVariable5.8 mphClear
11:53 AM63.0 °F46.0 °F54 %30.38 in10.0 miCalmClear
12:53 PM66.0 °F46.0 °F48 %30.35 in10.0 miCalmClear
1:53 PM66.9 °F46.0 °F47 %30.31 in10.0 miCalmClear
2:53 PM69.1 °F44.1 °F40 %30.29 in10.0 miCalmClear
3:53 PM70.0 °F45.0 °F41 %30.28 in10.0 miCalmClear
4:53 PM69.1 °F44.1 °F40 %30.27 in10.0 miCalmClear
5:53 PM66.0 °F46.0 °F48 %30.27 in10.0 miSouth (170°)3.5 mphClear
6:53 PM62.1 °F46.0 °F56 %30.28 in10.0 miEast (100°)3.5 mphClear
7:53 PM57.9 °F45.0 °F62 %30.28 in10.0 miNE (50°)3.5 mphClear
8:53 PM55.0 °F46.0 °F72 %30.29 in10.0 miEast (90°)3.5 mphClear
9:53 PM54.0 °F46.0 °F75 %30.29 in10.0 miENE (60°)4.6 mphClear
10:53 PM52.0 °F46.0 °F80 %30.29 in10.0 miCalmClear
11:53 PM52.0 °F46.0 °F80 %30.28 in10.0 miCalmClear
Hourly data recorded from KOVE, located miles away from Oroville, California







STORIES FROM OUR PARTNERS